Location: *
(13.2257°S, 48.7193°W)
Time: 12:58:02
(UTC+00:00)

Ariane H10-3 - Pass Details

Date: 13 February 2026
Orbit: 494 x 36347 km, 5.2° (Epoch: 10 March)

Event Time Altitude Azimuth Distance (km) Brightness Sun altitude
Exits shadow 08:38:10 11° 300° (WNW) 1,866 3.4 -9.0°
Maximum altitude 08:41:32 39° 12° (NNE) 1,339 3.2 -8.2°
Drops below altitude 10° 08:52:20 10° 78° (ENE) 5,865 7.7 -5.7°
Sets 09:04:01 0° 84° (E) 10,492 9.4 -2.9°
